Simultaneous Nadir Overpasses (SNOs) Predictions

Prediction of SNOs between LANDSAT-8 and METOP-A Satellite Orbit:

Table of predicted SNOs for the next 14.0 days since TLE Epoch: 9/11/2020
Index Date (LANDSAT-8) Time (LANDSAT-8) Lat,Lon (LANDSAT-8) SZA (LANDSAT-8 ) Date (METOP-A) Time (METOP-A) Lat,Lon (METOP-A) SZA (METOP-A ) Distance(km) Time Diff (sec)
1 09/14/2020 09:04:05 -81.46, -89.81 98.96 09/14/2020 09:03:15 -81.46, -89.91 98.99 1.61 50
2 09/14/2020 09:53:32 81.44, 77.51 81.02 09/14/2020 09:53:55 81.45, 77.68 81.05 2.97 23
3 09/17/2020 04:38:22 -81.44, -23.69 97.90 09/17/2020 04:37:39 -81.46, -23.68 97.91 1.42 43
4 09/17/2020 05:27:48 81.45, 143.99 82.13 09/17/2020 05:28:19 81.45, 143.88 82.14 1.99 31
5 09/20/2020 00:12:37 -81.45, 42.79 96.78 09/20/2020 00:12:01 -81.45, 42.93 96.77 2.38 36
6 09/20/2020 01:02:03 81.45,-149.55 83.25 09/20/2020 01:02:41 81.45,-149.53 83.27 0.24 38
7 09/22/2020 19:46:53 -81.45, 109.25 95.66 09/22/2020 19:46:25 -81.45, 109.14 95.68 1.95 28
8 09/22/2020 20:36:19 81.45, -83.11 84.36 09/22/2020 20:37:04 81.44, -82.95 84.40 2.73 45
9 09/25/2020 15:21:09 -81.45, 175.67 94.54 09/25/2020 15:20:48 -81.45, 175.73 94.54 1.06 21
